This is the latest recevied weather packets stored in our database for station/object IZ1GCT. If no packets are shown the sender has not sent any weather packets the latest 10 day(s).
| Time | Temp. | Humidity | Pressure | Rain* | Wind** | Luminosity | Snow |
|---|---|---|---|---|---|---|---|
| 1777952751 | 9.44° C | 91% | 1017.2 hPa | 1.52 mm | - | - | - |
| 1777952452 | 9.44° C | 91% | 1017.3 hPa | 1.27 mm | - | - | - |
| 1777952153 | 10° C | 91% | 1017.2 hPa | 1.52 mm | - | - | - |
| 1777951852 | 10° C | 91% | 1017.2 hPa | 1.27 mm | - | - | - |
| 1777951552 | 10° C | 90% | 1017.2 hPa | 1.27 mm | - | - | - |
| 1777951251 | 10° C | 90% | 1017.2 hPa | 1.52 mm | - | - | - |
| 1777950953 | 10° C | 90% | 1017.2 hPa | 1.78 mm | - | - | - |
| 1777950653 | 10° C | 89% | 1017.1 hPa | 1.52 mm | - | - | - |
| 1777950352 | 9.44° C | 88% | 1017.3 hPa | 1.52 mm | - | - | - |
| 1777950051 | 10° C | 88% | 1017.3 hPa | 1.27 mm | - | - | - |
| 1777949753 | 10° C | 88% | 1017.4 hPa | 1.27 mm | - | - | - |
| 1777949452 | 10° C | 88% | 1017.3 hPa | 1.27 mm | - | - | - |
| 1777949153 | 10° C | 88% | 1017.4 hPa | 1.02 mm | - | - | - |
| 1777948852 | 10° C | 89% | 1017.4 hPa | 1.02 mm | - | - | - |
| 1777948552 | 10° C | 89% | 1017.3 hPa | 0.51 mm | - | - | - |
| 1777948252 | 10° C | 90% | 1017.3 hPa | 0.51 mm | - | - | - |
| 1777947952 | 10° C | 90% | 1017.3 hPa | 0.51 mm | - | - | - |
| 1777947651 | 10° C | 91% | 1017.3 hPa | 0.25 mm | - | - | - |
| 1777947352 | 10° C | 91% | 1017.3 hPa | 0 mm | - | - | - |
| 1777947052 | 10° C | 91% | 1017.3 hPa | 0 mm | - | - | - |
| 1777946751 | 10° C | 91% | 1017.4 hPa | 0 mm | - | - | - |
| 1777946453 | 10° C | 90% | 1017.4 hPa | 0 mm | - | - | - |
| 1777946152 | 10° C | 90% | 1017.4 hPa | 0 mm | - | - | - |
| 1777945851 | 10° C | 90% | 1017.2 hPa | 0 mm | - | - | - |
| 1777945553 | 10° C | 89% | 1017.3 hPa | 0 mm | - | - | - |
* Rain latest hour (hover to see other rain measurements)
** Current wind speed in m/s (hover to see current wind gust speed)